Location: Boiro
(42.6475°N, 8.8834°W)
Time: 11:59:24
(UTC+01:00)

Altair - Pass Details

Date: 01 December 2021
Orbit: 1501 x 1683 km, 47.2° (Epoch: 21 January)

Event Time Altitude Azimuth Distance (km) Brightness Sun altitude
Rises 21:39:23 0° 285° (WNW) 4,687 10.9 -39.1°
Reaches altitude 10° 21:42:29 10° 288° (WNW) 3,687 10.2 -39.7°
Enters shadow 21:49:55 59° 315° (NW) 1,704 7.7 -41.1°
